Probability
0 0 0 0 0 0 0 0 3 3 0 0 3 0 0 3 6 6 3 6 6 10 10 10 6 3 6 3 3 3 3 0 0 0 0 0 0 3 0 0 0 3 10 6
0 0 0 0 0 0 0 3 3 0 0 0 3 3 0 3 3 6 10 10 10 10 13 10 6 3 6 3 3 3 3 0 0 0 0 0 3 3 0 0 3 3 6 6
0 0 0 0 0 0 0 0 0 0 3 3 6 0 3 10 6 6 6 10 10 10 10 10 10 3 10 10 10 6 3 0 0 0 0 0 0 0 0 0 0 0 3 10
0 0 0 0 0 0 0 0 0 3 0 0 3 0 0 6 10 6 10 10 10 13 6 6 10 10 10 16 13 13 0 0 0 0 0 0 0 0 0 0 0 3 6 10
0 0 0 0 0 0 0 0 0 0 0 0 0 0 0 0 10 6 10 10 10 6 3 6 10 10 6 10 6 6 0 0 0 0 0 0 0 0 0 0 0 3 6 6
0 0 0 0 0 0 0 0 0 0 0 0 0 0 0 3 10 10 10 10 10 6 6 6 6 10 6 6 6 3 3 3 3 0 0 0 0 0 0 0 3 3 3 10
0 0 0 0 0 0 0 0 0 0 0 0 0 0 0 3 3 6 6 10 10 13 13 13 10 13 6 6 6 6 3 3 3 3 0 0 0 0 0 3 3 6 6 10
0 0 0 0 0 0 0 0 0 0 0 0 0 0 0 0 0 3 6 6 10 13 13 13 13 13 10 10 10 6 6 3 6 13 6 6 6 6 3 3 3 6 10 13
0 0 0 0 0 0 0 0 0 0 0 0 0 0 0 3 3 3 0 6 10 16 13 16 13 10 6 6 6 6 6 6 10 13 10 6 6 6 6 6 6 6 6 6
0 0 0 0 0 0 0 0 0 0 0 0 0 0 0 3 3 3 3 6 6 10 16 16 16 13 6 6 6 10 10 3 6 10 16 13 10 10 6 6 6 6 6 3
0 0 0 0 0 0 0 0 0 0 0 0 0 0 0 0 3 3 3 6 6 10 13 13 13 10 6 3 6 6 6 10 10 13 13 13 13 10 10 10 10 10 6 6
0 0 0 0 0 0 0 0 0 0 0 0 0 0 0 0 0 0 6 6 6 10 13 13 16 10 10 10 10 6 16 13 13 13 13 13 16 16 16 6 6 6 6 3
0 0 0 0 0 0 0 0 0 0 0 0 0 0 0 0 6 3 6 3 6 6 10 16 16 16 13 16 16 13 13 16 13 16 16 13 13 16 16 16 10 13 10 13
0 0 0 0 0 0 0 0 0 0 0 0 0 0 0 0 3 3 3 3 6 6 10 16 13 13 16 13 10 10 13 13 13 16 13 13 10 13 10 13 16 16 16 13
0 0 0 0 0 0 0 0 0 0 0 0 0 0 0 0 0 0 3 6 6 6 10 19 13 13 10 10 10 16 10 10 10 13 13 13 13 13 16 19 13 13 16 16
0 0 0 0 0 0 0 0 0 0 0 0 0 0 0 0 0 0 3 3 6 6 6 6 6 6 6 13 13 16 13 13 13 13 13 10 13 13 16 16 13 13 13 16
0 0 0 0 0 0 0 0 0 0 0 0 0 0 0 0 0 0 3 3 3 10 10 13 3 3 6 6 13 13 16 10 10 10 10 10 6 10 13 13 13 13 13 13
0 0 0 0 0 0 0 0 0 3 3 3 0 0 0 0 0 0 3 3 3 3 10 10 6 6 6 6 6 10 16 13 10 10 10 6 6 6 6 10 13 13 13 13
0 0 0 0 0 0 0 3 3 3 3 6 3 3 3 3 0 0 0 3 6 10 6 10 6 10 10 6 6 10 16 16 16 16 10 10 6 6 6 6 13 13 13 13
0 0 0 0 0 0 0 0 3 3 3 6 6 6 6 3 3 0 0 3 6 3 6 3 3 10 10 10 10 13 13 16 16 16 13 13 13 10 10 10 13 13 13 10
0 0 0 0 0 0 0 0 0 3 0 6 6 6 6 0 0 0 0 3 3 3 6 6 3 3 13 13 13 13 13 13 16 13 10 10 10 10 10 10 10 13 10 10
0 0 0 0 0 0 0 0 0 0 0 3 3 6 0 0 0 0 0 0 3 3 3 10 6 6 3 10 10 10 10 10 10 13 13 10 10 10 10 10 10 10 6 6
0 0 0 0 0 0 0 3 3 3 3 3 3 0 0 0 0 0 0 3 0 3 3 6 6 3 3 6 10 10 6 6 6 13 13 10 10 10 10 10 10 10 10 6
0 0 0 0 3 0 0 3 3 3 3 0 0 0 0 0 0 0 0 0 0 0 3 6 6 6 3 6 6 3 3 6 6 10 10 10 10 10 10 10 10 10 10 10
0 0 0 0 0 0 0 0 3 3 3 0 0 0 0 0 0 0 3 6 3 0 3 6 6 6 6 3 3 3 3 3 6 10 10 10 10 10 10 6 3 10 10 10
0 0 0 0 0 0 0 0 3 3 3 0 0 0 0 0 0 0 0 3 3 0 0 3 6 6 6 6 3 3 3 3 3 3 10 10 10 10 10 6 3 0 0 0
Height
5894 5896 5896 5897 5897 5898 5898 5899 5899 5899 5898 5898 5897 5897 5897 5896 5896 5895 5894 5893 5892 5890 5889 5887 5886 5885 5884 5883 5881 5880 5879 5877 5876 5875 5874 5873 5872 5871 5871 5870 5870 5870 5869 5869
5894 5895 5896 5896 5896 5896 5897 5897 5898 5898 5898 5897 5897 5897 5897 5896 5895 5894 5894 5892 5891 5890 5888 5887 5885 5884 5883 5882 5881 5879 5877 5876 5875 5874 5873 5872 5871 5870 5870 5869 5868 5868 5868 5867
5892 5894 5894 5895 5895 5895 5896 5896 5896 5896 5896 5896 5896 5896 5896 5895 5894 5893 5892 5891 5890 5888 5887 5885 5884 5883 5882 5880 5879 5878 5876 5875 5874 5872 5871 5870 5869 5868 5868 5867 5867 5866 5866 5865
5890 5891 5892 5893 5893 5894 5894 5895 5894 5894 5894 5894 5895 5895 5895 5894 5893 5892 5891 5890 5888 5887 5885 5884 5882 5881 5880 5879 5878 5876 5875 5873 5872 5870 5869 5868 5867 5867 5866 5866 5865 5864 5864 5863
5888 5889 5890 5891 5892 5892 5892 5893 5892 5892 5892 5892 5893 5893 5894 5892 5891 5891 5889 5888 5887 5885 5883 5882 5881 5880 5878 5877 5876 5874 5873 5871 5870 5868 5867 5866 5865 5865 5864 5863 5863 5862 5861 5860
5886 5887 5888 5889 5890 5890 5890 5891 5890 5890 5890 5891 5891 5890 5891 5890 5889 5888 5887 5886 5885 5883 5882 5880 5879 5878 5877 5875 5874 5872 5870 5869 5867 5866 5865 5864 5863 5862 5861 5860 5860 5859 5858 5857
5883 5884 5886 5887 5887 5888 5888 5889 5888 5888 5888 5888 5888 5887 5889 5888 5886 5885 5885 5883 5882 5881 5879 5878 5877 5875 5874 5873 5871 5869 5868 5866 5865 5864 5862 5861 5860 5859 5858 5858 5857 5856 5855 5854
5880 5882 5883 5884 5884 5885 5885 5886 5886 5886 5885 5885 5885 5884 5886 5885 5883 5882 5881 5880 5879 5878 5876 5875 5874 5872 5871 5870 5868 5866 5865 5863 5862 5860 5859 5858 5857 5856 5855 5855 5854 5853 5851 5850
5876 5879 5880 5880 5881 5881 5881 5882 5883 5882 5881 5881 5881 5881 5881 5881 5879 5879 5878 5876 5875 5874 5873 5872 5870 5869 5868 5866 5865 5863 5861 5860 5858 5857 5855 5854 5853 5852 5851 5851 5850 5848 5847 5846
5872 5874 5876 5876 5877 5877 5878 5878 5878 5878 5877 5876 5877 5877 5878 5877 5876 5875 5874 5873 5871 5870 5869 5868 5867 5865 5864 5862 5861 5859 5857 5856 5854 5853 5852 5850 5849 5848 5847 5846 5845 5844 5842 5841
5868 5870 5871 5872 5872 5872 5873 5873 5873 5873 5873 5873 5872 5875 5874 5872 5871 5870 5870 5868 5868 5867 5865 5864 5863 5861 5859 5858 5856 5854 5853 5851 5850 5849 5847 5846 5845 5844 5842 5841 5840 5838 5837 5836
5863 5864 5865 5867 5868 5868 5868 5868 5869 5869 5869 5868 5868 5871 5869 5868 5867 5866 5865 5864 5863 5862 5860 5859 5858 5856 5854 5853 5851 5850 5848 5847 5845 5844 5843 5842 5841 5839 5838 5836 5835 5833 5832 5831
5858 5859 5860 5861 5864 5863 5863 5863 5863 5863 5863 5863 5862 5865 5864 5863 5862 5861 5860 5859 5858 5857 5856 5854 5853 5851 5849 5848 5846 5845 5843 5841 5840 5839 5838 5837 5835 5834 5833 5831 5830 5828 5827 5825
5852 5852 5854 5856 5857 5857 5857 5858 5858 5858 5857 5857 5857 5858 5858 5857 5856 5856 5855 5854 5853 5852 5851 5849 5848 5846 5844 5843 5841 5840 5838 5836 5835 5834 5833 5832 5830 5829 5827 5826 5824 5823 5821 5820
5845 5846 5847 5848 5850 5851 5851 5852 5852 5852 5852 5852 5852 5852 5852 5851 5850 5850 5849 5848 5847 5846 5845 5843 5842 5840 5839 5837 5835 5834 5832 5831 5830 5829 5828 5826 5825 5823 5822 5820 5819 5817 5816 5814
5838 5839 5840 5841 5842 5843 5844 5845 5846 5846 5846 5846 5845 5846 5846 5845 5844 5844 5843 5842 5841 5840 5839 5837 5836 5834 5832 5831 5829 5828 5827 5825 5824 5823 5822 5821 5819 5818 5816 5815 5813 5811 5810 5808
5830 5832 5833 5834 5835 5835 5836 5839 5839 5840 5839 5839 5839 5840 5839 5838 5838 5838 5837 5836 5835 5834 5833 5832 5830 5828 5827 5825 5824 5822 5820 5819 5818 5817 5816 5814 5813 5812 5810 5808 5807 5805 5803 5801
5823 5824 5825 5826 5828 5827 5832 5832 5832 5832 5832 5832 5832 5832 5832 5831 5831 5831 5830 5830 5829 5828 5827 5825 5823 5822 5821 5819 5817 5816 5814 5813 5812 5810 5809 5808 5806 5805 5804 5802 5800 5799 5797 5795
5816 5817 5817 5818 5818 5819 5823 5824 5824 5824 5824 5825 5825 5824 5824 5824 5824 5824 5823 5823 5822 5821 5820 5818 5817 5815 5814 5812 5811 5809 5808 5807 5805 5804 5803 5801 5800 5798 5796 5795 5793 5791 5789 5788
5807 5808 5810 5810 5810 5811 5815 5816 5816 5816 5816 5818 5817 5817 5817 5817 5817 5817 5816 5815 5815 5814 5812 5811 5810 5808 5806 5805 5803 5802 5801 5800 5798 5797 5795 5794 5792 5791 5789 5788 5786 5784 5782 5780
5798 5799 5800 5801 5801 5803 5807 5807 5808 5809 5810 5809 5809 5809 5809 5809 5809 5809 5809 5808 5807 5806 5805 5803 5802 5800 5799 5797 5796 5795 5794 5792 5790 5789 5787 5786 5785 5783 5781 5780 5778 5777 5775 5773
5789 5790 5792 5793 5794 5798 5798 5798 5799 5800 5800 5800 5800 5800 5800 5800 5800 5800 5800 5799 5799 5798 5797 5795 5794 5793 5791 5790 5788 5787 5785 5784 5782 5781 5779 5778 5777 5775 5773 5772 5770 5769 5767 5766
5780 5782 5783 5785 5788 5788 5788 5788 5789 5790 5791 5791 5791 5791 5792 5792 5792 5791 5791 5791 5790 5789 5788 5787 5786 5784 5783 5781 5780 5779 5777 5775 5774 5773 5771 5770 5768 5766 5765 5763 5762 5760 5759 5758
5771 5772 5774 5776 5777 5778 5779 5779 5780 5781 5781 5781 5782 5782 5782 5782 5783 5783 5782 5782 5781 5780 5779 5778 5777 5775 5774 5773 5771 5770 5769 5766 5765 5764 5763 5761 5759 5757 5756 5754 5753 5752 5751 5749
5762 5764 5765 5766 5768 5769 5770 5770 5771 5771 5771 5772 5772 5772 5773 5773 5773 5773 5773 5772 5772 5771 5770 5768 5767 5766 5765 5764 5763 5761 5760 5758 5757 5756 5754 5752 5751 5748 5747 5746 5744 5743 5742 5741
5753 5755 5756 5758 5759 5760 5761 5761 5761 5761 5762 5762 5762 5762 5763 5763 5763 5764 5764 5763 5762 5761 5760 5759 5758 5757 5756 5754 5753 5752 5750 5749 5748 5747 5745 5744 5742 5740 5739 5738 5736 5735 5734 5732
Wind_Speed
7 6 5 5 5 4 4 4 2 2 2 2 3 3 4 5 6 6 6 7 7 7 7 8 7 7 7 7 7 7 7 6 6 5 4 4 4 4 3 3 3 4 4 4
9 7 6 7 7 6 7 6 4 4 4 5 4 5 4 5 6 6 7 7 7 8 9 9 8 7 7 8 8 8 8 8 8 7 6 5 5 5 4 4 4 4 5 6
10 8 8 8 8 7 7 7 6 7 7 7 7 6 5 6 7 7 7 7 8 8 9 9 9 9 9 9 9 9 9 9 9 8 7 7 6 6 6 6 6 6 7 7
11 10 9 9 8 8 8 8 8 9 9 10 9 8 7 8 9 9 9 9 8 8 9 10 10 10 10 10 10 10 10 10 10 9 8 8 8 8 8 8 8 8 9 9
12 11 11 10 9 10 9 9 10 10 11 11 11 11 9 9 10 10 10 9 9 10 10 11 11 11 11 12 11 11 11 11 11 10 9 9 10 11 11 10 10 10 10 10
14 14 13 12 11 11 11 11 11 12 13 13 12 13 11 11 11 12 12 11 12 11 11 11 12 12 12 12 12 12 12 12 12 11 10 10 11 12 12 11 11 11 11 11
15 15 14 13 13 13 13 13 14 15 15 15 14 14 12 12 13 13 14 14 13 13 13 13 13 13 13 13 13 13 12 12 13 12 12 12 13 13 12 12 12 12 12 12
16 15 15 14 14 15 15 16 16 17 17 17 16 16 14 13 14 14 15 16 16 15 15 14 14 14 13 13 14 14 14 14 14 14 13 13 13 14 14 13 14 14 15 14
16 15 15 16 15 16 17 18 18 19 19 19 18 17 17 16 15 15 16 17 17 16 15 15 15 15 14 14 15 15 15 16 15 15 15 14 14 14 14 14 15 16 16 17
19 18 17 18 17 17 18 18 19 20 21 21 19 18 18 18 18 18 18 19 17 16 15 16 15 15 16 16 16 16 16 16 16 17 16 16 16 16 16 16 17 17 18 19
21 20 19 19 20 19 19 20 21 22 22 22 22 20 19 19 19 20 20 19 18 17 17 17 17 17 18 18 18 18 18 17 17 17 16 16 16 17 17 17 17 18 18 18
22 22 21 21 21 21 22 22 21 23 24 24 24 22 20 21 21 20 21 20 19 19 18 17 18 18 19 19 19 19 19 19 18 18 18 18 18 17 17 17 18 18 19 19
24 25 24 23 23 23 23 23 22 24 25 26 26 24 22 23 22 22 21 21 19 19 19 19 19 19 20 20 20 21 20 20 19 19 19 19 18 18 18 18 18 19 19 20
26 27 27 26 25 24 24 24 24 25 26 27 27 26 24 24 23 23 22 22 21 21 21 20 21 21 20 21 22 21 21 21 20 20 20 20 19 19 19 19 20 20 20 21
28 29 29 29 28 27 26 26 26 27 27 28 27 27 26 25 25 24 23 23 22 22 21 21 22 22 22 22 22 22 21 21 21 21 20 20 20 20 20 21 21 21 21 21
31 32 31 31 30 28 28 27 27 27 27 28 29 29 27 27 26 25 24 24 23 23 22 22 22 22 22 22 22 22 22 22 21 21 21 21 21 21 21 21 22 22 22 22
33 33 33 33 32 32 31 28 28 28 27 28 28 28 28 28 27 27 26 25 24 23 22 22 22 22 22 22 22 22 22 22 22 22 22 22 22 22 22 23 23 23 23 23
32 33 34 34 34 35 31 29 29 29 29 29 29 29 29 29 29 28 27 26 25 24 24 24 23 22 23 23 23 23 24 23 24 24 23 23 23 23 23 23 24 24 24 23
33 34 34 35 35 35 32 31 31 30 30 29 30 30 30 29 28 28 28 27 26 25 24 24 25 25 25 25 25 25 24 24 25 25 24 25 25 25 25 25 25 25 25 25
34 34 35 34 35 35 32 31 31 31 31 30 30 30 29 29 29 28 28 28 27 27 26 26 26 27 27 27 27 26 26 26 26 25 25 25 25 26 26 26 26 26 26 25
34 34 34 34 34 34 32 32 31 32 31 31 31 30 30 29 29 29 28 29 29 28 28 28 27 28 28 28 28 27 27 27 27 27 27 27 26 26 27 27 26 26 26 26
34 34 34 34 34 33 32 33 33 32 32 32 31 31 30 29 29 29 29 29 29 29 29 29 29 29 29 28 28 28 27 27 28 28 27 27 27 27 28 27 27 27 27 27
34 34 34 34 34 33 32 33 33 33 33 33 32 31 31 30 30 30 30 30 30 30 31 31 31 30 29 29 29 28 27 28 28 28 28 28 28 28 28 28 28 28 28 27
33 33 32 32 32 32 32 33 32 33 32 32 32 31 31 31 31 30 30 30 30 30 31 31 30 30 30 29 30 29 29 28 28 28 28 28 29 29 28 28 29 29 28 27
32 32 32 32 33 32 32 33 32 32 32 33 33 32 31 31 31 30 30 30 30 30 31 31 31 30 30 30 30 29 29 29 29 29 29 28 29 29 29 28 29 28 28 27
31 32 33 33 33 33 32 32 32 32 31 32 32 32 31 31 31 31 31 31 30 30 31 31 31 31 31 30 30 30 30 30 30 30 29 29 29 29 29 28 29 29 28 27
Wind_Direction
216 214 217 218 219 225 221 230 249 272 295 331 351 346 350 2 2 358 1 356 353 351 348 350 353 351 349 346 341 336 332 330 328 330 326 318 322 320 316 308 299 292 286 286
214 215 221 225 229 241 236 244 258 259 283 301 305 309 320 331 339 343 345 342 337 334 335 338 340 340 337 335 333 329 326 324 321 321 323 315 320 320 315 311 303 291 284 284
216 214 223 233 242 253 254 258 262 270 276 286 294 296 309 315 314 317 322 326 328 326 327 329 330 333 334 331 327 325 320 318 315 316 313 312 311 308 303 299 295 291 288 287
218 220 229 235 246 258 259 261 267 271 278 284 289 296 303 301 302 305 307 314 322 322 322 321 321 325 324 325 324 320 317 312 309 307 306 308 306 303 300 297 295 294 291 289
222 229 236 240 250 256 251 255 264 271 276 280 281 290 298 301 302 301 307 316 320 321 320 317 318 321 322 321 318 316 314 309 306 301 300 303 300 299 296 293 293 294 292 286
228 233 239 241 247 256 254 257 262 267 274 278 281 283 289 295 299 300 304 311 311 310 311 315 314 314 317 317 314 312 309 306 304 294 291 292 293 295 294 289 289 289 290 287
234 239 242 244 249 256 261 262 263 266 271 279 283 281 290 291 293 297 301 307 309 305 304 308 310 308 312 311 308 307 307 303 301 295 287 286 289 291 291 288 288 288 288 289
238 240 244 248 256 257 260 264 268 271 275 278 279 281 289 293 292 296 299 302 304 302 299 300 304 303 304 305 305 303 302 301 296 294 291 288 289 291 288 286 289 291 291 291
240 241 244 248 254 256 259 261 266 271 276 281 283 284 287 293 290 294 296 298 300 299 297 297 302 302 300 299 300 302 301 301 297 296 296 292 292 290 290 289 291 292 290 289
243 244 242 244 248 253 259 262 265 269 276 282 284 286 289 291 292 293 293 295 296 296 294 294 297 299 299 297 295 295 296 297 297 296 294 293 292 290 293 292 291 290 289 285
244 248 245 246 248 253 257 262 264 267 272 279 283 285 289 291 293 292 292 294 292 290 290 292 294 295 297 296 294 294 293 291 291 293 292 292 294 295 293 294 292 291 291 290
248 251 250 252 254 257 259 261 266 268 271 275 280 283 287 288 290 291 292 292 291 290 291 292 294 295 295 295 295 293 290 288 287 288 290 290 291 293 293 292 294 294 292 290
252 255 256 255 256 260 263 263 267 270 271 273 277 281 283 284 287 290 291 293 293 291 292 295 296 294 293 291 291 290 286 285 284 285 287 289 292 293 294 293 293 293 292 290
252 255 258 260 261 261 263 265 268 271 272 274 276 280 282 283 285 287 289 290 291 290 290 294 296 295 292 289 291 287 283 282 282 285 286 287 290 292 294 295 294 295 296 295
253 256 259 262 263 263 263 264 266 269 272 274 276 279 281 283 285 287 287 288 289 290 291 293 296 297 295 292 291 288 287 285 285 286 289 289 290 290 291 294 295 296 298 300
253 256 259 261 263 263 264 264 265 268 271 273 274 276 279 281 284 287 288 288 291 293 295 296 296 296 296 295 290 288 288 286 286 288 288 289 290 291 291 291 293 295 295 297
254 257 259 261 262 264 265 265 266 269 270 273 274 276 278 280 283 286 287 287 290 292 295 296 294 293 295 295 294 293 292 288 288 289 289 288 289 289 290 290 291 292 293 294
254 256 259 262 263 263 266 266 266 268 270 272 274 274 276 278 280 283 284 285 288 291 293 294 292 290 293 293 292 291 291 291 290 291 291 291 290 289 289 291 290 288 288 290
254 256 257 260 262 265 265 265 267 268 270 272 274 275 275 277 278 279 282 283 285 287 290 291 291 290 291 291 289 289 289 290 290 289 290 290 290 289 289 291 291 291 289 287
254 256 258 260 263 265 266 266 268 269 270 271 272 273 274 275 275 276 278 280 281 283 286 288 288 289 287 287 287 286 288 288 289 287 288 289 290 290 290 290 291 291 292 289
255 256 258 260 263 266 267 266 267 269 272 272 271 272 273 274 276 276 276 278 279 281 283 285 286 287 288 286 285 284 286 286 287 287 286 286 288 288 288 288 288 289 291 291
256 258 259 261 264 266 267 266 267 270 271 272 272 272 272 273 273 274 275 276 276 279 282 284 284 286 286 285 284 285 285 286 286 287 288 287 287 287 287 286 286 288 290 291
255 257 260 261 263 265 266 267 267 268 269 270 271 272 272 272 271 272 274 276 276 277 281 283 283 284 285 285 284 285 285 285 286 286 287 287 286 285 285 285 285 287 289 290
255 256 258 261 262 263 265 266 268 268 269 269 270 271 273 272 272 274 276 278 279 279 280 281 281 282 283 284 285 284 285 285 286 287 286 287 288 285 283 284 284 285 287 289
256 256 257 259 261 264 266 267 268 269 267 267 269 270 270 271 272 274 276 277 279 280 280 280 280 281 282 284 284 283 283 284 285 286 286 286 287 285 283 284 284 285 285 286
257 258 257 259 262 264 265 267 268 268 267 268 268 268 268 270 271 273 274 276 277 279 279 279 280 281 282 283 282 282 282 282 284 284 284 283 284 285 285 284 285 285 284 285